Madawaska, ME

8:25 PM EDT on August 25, 2016 (GMT -0400)
Northern Aroostook Regional

Weather History for KFVE - January, 2014

Change the Weather History Date:

Monday, January 6, 2014

  Actual Average Record
Temperature  
Mean Temperature 28 °F 10 °F  
Max Temperature 39 °F 18 °F 44 °F (2007)
Min Temperature 17 °F 2 °F -19 °F (2015)
Degree Days  
Heating Degree Days 37    
Month to date heating degree days 413  
Since 1 July heating degree days 4117  
Cooling Degree Days 0    
Month to date cooling degree days 0  
Year to date cooling degree days 0  
Moisture  
Dew Point 29 °F    
Average Humidity 94    
Maximum Humidity 100    
Minimum Humidity 74    
Precipitation  
Precipitation 0.78 in 0.12 in 0.78 in (2014)
Month to date precipitation 0.80 0.74  
Year to date precipitation 0.80 0.74  
Sea Level Pressure  
Sea Level Pressure 29.43 in    
Wind  
Wind Speed 16 mph (SSE)    
Max Wind Speed 31 mph    
Max Gust Speed 39 mph    
Visibility 4 miles    
Events Fog , Rain , Snow    
T = Trace of Precipitation, MM = Missing Value Source: NWS Daily Summary

Daily Weather History Graph

Daily Weather History Graph

Search for Another Location

Airport or City:

Trip Planner

Search our weather history database for the weather conditions in past years. The results will help you decide how hot, cold, wet, or windy it might be!

Date:

Astronomy

Jan. 06, 2014 Rise Set
Actual Time 7:19 AM EST 3:58 PM EST
Civil Twilight 6:44 AM EST 4:34 PM EST
Nautical Twilight 6:05 AM EST 5:12 PM EST
Astronomical Twilight 5:28 AM EST 5:49 PM EST
Moon 10:07 AM EST (1/6) 10:56 PM EST (1/6)
Length of Visible Light 9h 49m
Length of Day
8h 39m
Waxing Crescent, 34% of the Moon is Illuminated
Jan 6
Waxing Crescent
Jan 7
First Quarter
Jan 15
Full
Jan 24
Last Quarter
Jan 30
New

Hourly Weather History & Observations

Time (EST) Temp. Windchill Dew Point Humidity Pressure Visibility Wind Dir Wind Speed Gust Speed Precip Events Conditions
12:53 AM 18.0 °F 7.7 °F 15.1 °F 88% 30.14 in 10.0 mi ESE 8.1 mph - N/A   Overcast
1:53 AM 18.0 °F 6.9 °F 16.0 °F 92% 30.10 in 10.0 mi ESE 9.2 mph - N/A   Overcast
2:53 AM 19.0 °F 8.2 °F 16.0 °F 88% 30.05 in 10.0 mi ESE 9.2 mph - N/A   Overcast
3:10 AM 19.0 °F 5.6 °F 16.0 °F 88% 29.98 in 2.5 mi ESE 13.8 mph 20.7 mph 0.00 in Snow Light Snow
3:14 AM 19.0 °F 5.0 °F 16.0 °F 88% 29.97 in 1.5 mi ESE 15.0 mph 20.7 mph 0.00 in Snow Light Snow
3:18 AM 19.0 °F 5.0 °F 17.1 °F 92% 29.97 in 0.8 mi ESE 15.0 mph - 0.00 in Snow Light Snow
3:31 AM 19.0 °F 4.5 °F 17.1 °F 92% 29.94 in 0.5 mi ESE 16.1 mph 23.0 mph 0.01 in Fog , Snow Snow
3:53 AM 19.9 °F 7.9 °F 17.1 °F 89% 29.97 in 1.0 mi ESE 11.5 mph 23.0 mph 0.02 in Snow Light Snow
3:57 AM 19.9 °F 6.7 °F 17.1 °F 89% 29.91 in 1.8 mi ESE 13.8 mph 23.0 mph 0.00 in Snow Light Snow
4:01 AM 19.9 °F 5.7 °F 18.0 °F 92% 29.90 in 3.0 mi ESE 16.1 mph 21.9 mph 0.00 in Snow Light Snow
4:15 AM 19.9 °F 5.2 °F 18.0 °F 92% 29.90 in 8.0 mi SE 17.3 mph - 0.00 in   Overcast
4:44 AM 19.9 °F 6.2 °F 18.0 °F 92% 29.87 in 9.0 mi ESE 15.0 mph - 0.00 in   Overcast
4:53 AM 19.9 °F 5.2 °F 18.0 °F 92% 29.91 in 6.0 mi ESE 17.3 mph - 0.00 in Snow Light Snow
5:46 AM 21.9 °F 7.3 °F 19.0 °F 89% 29.79 in 10.0 mi ESE 18.4 mph 26.5 mph 0.01 in Rain Light Freezing Rain
5:53 AM 23.0 °F 8.3 °F 19.0 °F 85% 29.84 in 10.0 mi ESE 19.6 mph - 0.01 in Rain Light Freezing Rain
6:34 AM 24.1 °F 10.1 °F 21.0 °F 88% 29.75 in 5.0 mi ESE 18.4 mph - 0.00 in Rain Light Freezing Rain
6:53 AM 25.0 °F 10.9 °F 23.0 °F 92% 29.78 in 5.0 mi ESE 19.6 mph 28.8 mph 0.02 in Rain Light Freezing Rain
7:03 AM 25.0 °F 11.3 °F 24.1 °F 96% 29.73 in 3.0 mi ESE 18.4 mph 28.8 mph 0.02 in Rain Light Freezing Rain
7:19 AM 26.1 °F 13.1 °F 25.0 °F 96% 29.71 in 4.0 mi ESE 17.3 mph 27.6 mph 0.04 in Rain Light Freezing Rain
7:34 AM 27.0 °F 13.5 °F 26.1 °F 96% 29.70 in 3.0 mi ESE 19.6 mph 26.5 mph 0.06 in Rain Light Freezing Rain
7:46 AM 27.0 °F 14.3 °F 26.1 °F 96% 29.68 in 2.0 mi ESE 17.3 mph 25.3 mph 0.08 in Rain Light Freezing Rain
7:53 AM 27.0 °F 14.7 °F 27.0 °F 100% 29.71 in 2.0 mi ESE 16.1 mph 25.3 mph 0.09 in Rain Light Freezing Rain
8:00 AM 28.0 °F 14.9 °F 27.0 °F 96% 29.66 in 2.5 mi ESE 19.6 mph - 0.00 in Rain Light Freezing Rain
8:09 AM 28.0 °F 14.9 °F 27.0 °F 96% 29.65 in 2.0 mi ESE 19.6 mph 25.3 mph 0.01 in Rain Light Freezing Rain
8:17 AM 28.0 °F 15.7 °F 27.0 °F 96% 29.64 in 2.5 mi ESE 17.3 mph 25.3 mph 0.02 in Rain Light Freezing Rain
8:27 AM 28.0 °F 16.1 °F 27.0 °F 96% 29.63 in 3.0 mi ESE 16.1 mph 26.5 mph 0.02 in Rain Light Freezing Rain
8:50 AM 28.4 °F 17.0 °F 28.4 °F 100% 29.62 in 3.0 mi ESE 15.0 mph - 0.04 in Rain Light Freezing Rain
8:53 AM 28.9 °F 17.7 °F 28.0 °F 96% 29.66 in 3.0 mi ESE 15.0 mph - 0.05 in Rain Light Freezing Rain
9:08 AM 30.0 °F 19.1 °F 28.9 °F 96% 29.61 in 2.0 mi ESE 15.0 mph - 0.03 in Rain Light Freezing Rain
9:41 AM 30.0 °F 19.5 °F 30.0 °F 100% 29.56 in 2.5 mi ESE 13.8 mph - 0.08 in Rain Light Freezing Rain
9:53 AM 30.9 °F 19.8 °F 30.0 °F 96% 29.58 in 3.0 mi ESE 16.1 mph - 0.10 in Rain Light Freezing Rain
10:07 AM 30.9 °F 21.2 °F 30.0 °F 96% 29.53 in 2.5 mi ESE 12.7 mph - 0.01 in Rain Light Freezing Rain
10:12 AM 30.9 °F 21.7 °F 30.0 °F 96% 29.52 in 3.0 mi ESE 11.5 mph - 0.01 in Rain Light Freezing Rain
10:39 AM 32.0 °F 20.5 °F 30.9 °F 96% 29.48 in 7.0 mi SE 18.4 mph 25.3 mph 0.02 in   Overcast
10:53 AM 33.1 °F 22.6 °F 32.0 °F 96% 29.49 in 10.0 mi SE 16.1 mph - 0.02 in   Overcast
11:24 AM 34.0 °F 23.4 °F 33.1 °F 96% 29.39 in 1.5 mi SE 17.3 mph 29.9 mph 0.01 in Rain Light Rain
11:31 AM 33.1 °F 23.0 °F 33.1 °F 100% 29.39 in 0.8 mi SSE 15.0 mph - 0.02 in Rain Rain
11:53 AM 35.1 °F 25.2 °F 34.0 °F 96% 29.40 in 3.0 mi SSE 16.1 mph 23.0 mph 0.06 in Rain Light Rain
12:01 PM 35.1 °F 24.1 °F 34.0 °F 96% 29.34 in 2.5 mi SSE 19.6 mph 26.5 mph 0.03 in Rain Light Rain
12:09 PM 35.1 °F 24.8 °F 34.0 °F 96% 29.33 in 1.2 mi SSE 17.3 mph 26.5 mph 0.03 in Rain Light Rain
12:17 PM 35.1 °F 25.2 °F 34.0 °F 96% 29.31 in 0.5 mi SSE 16.1 mph - 0.03 in Fog , Rain Light Rain
12:24 PM 35.1 °F 24.5 °F 34.0 °F 96% 29.30 in 1.5 mi SE 18.4 mph - 0.03 in Rain Light Rain
12:27 PM 35.1 °F 24.5 °F 34.0 °F 96% 29.29 in 3.0 mi SE 18.4 mph - 0.04 in Rain Light Rain
12:39 PM 35.1 °F 24.5 °F 35.1 °F 100% 29.29 in 1.5 mi SSE 18.4 mph 24.2 mph 0.04 in Rain Light Rain
12:44 PM 36.0 °F 25.3 °F 35.1 °F 97% 29.27 in 0.8 mi SSE 19.6 mph 26.5 mph 0.05 in Rain Rain
12:53 PM 36.0 °F 25.6 °F 35.1 °F 97% 29.29 in 0.2 mi SE 18.4 mph - 0.08 in Fog , Rain Rain
1:15 PM 37.0 °F 27.0 °F 36.0 °F 96% 29.23 in 1.5 mi SSE 18.4 mph 27.6 mph 0.02 in Rain Light Rain
1:19 PM 37.0 °F 26.2 °F 36.0 °F 96% 29.23 in 3.0 mi SSE 21.9 mph 27.6 mph 0.03 in Rain Rain
1:39 PM 37.9 °F 27.3 °F 37.0 °F 97% 29.22 in 3.0 mi SSE 21.9 mph 29.9 mph 0.09 in Rain Rain
1:53 PM 37.0 °F 27.0 °F 36.0 °F 96% 29.23 in 5.0 mi SSE 18.4 mph 29.9 mph 0.12 in Rain Light Rain
2:16 PM 37.0 °F 26.7 °F 37.0 °F 100% 29.17 in 6.0 mi SSE 19.6 mph 27.6 mph 0.03 in Rain Light Rain
2:53 PM 37.9 °F 27.9 °F 37.0 °F 97% 29.16 in 5.0 mi SSE 19.6 mph - 0.06 in Rain Rain
3:05 PM 37.9 °F 29.6 °F 37.9 °F 100% 29.15 in 2.0 mi South 13.8 mph - 0.02 in Rain Light Rain
3:14 PM 39.0 °F 31.4 °F 39.0 °F 100% 29.15 in 1.5 mi South 12.7 mph 21.9 mph 0.03 in Rain Light Rain
3:22 PM 39.0 °F 30.3 °F 39.0 °F 100% 29.15 in 1.0 mi South 16.1 mph 21.9 mph 0.03 in Rain Light Rain
3:33 PM 39.0 °F 31.4 °F 37.9 °F 96% 29.16 in 0.2 mi SW 12.7 mph - 0.06 in Fog , Rain Rain
3:40 PM 37.9 °F 31.5 °F 37.9 °F 100% 29.14 in 0.2 mi SSW 9.2 mph - 0.06 in Fog , Rain Light Rain
3:47 PM 37.4 °F 30.3 °F 37.4 °F 100% 29.11 in 0.8 mi South 10.4 mph - 0.06 in Rain Light Rain
3:53 PM 39.0 °F 31.4 °F 37.9 °F 96% 29.13 in 1.0 mi South 12.7 mph - 0.06 in Rain Light Rain
3:58 PM 39.0 °F 31.8 °F 39.0 °F 100% 29.11 in 2.0 mi South 11.5 mph - 0.00 in Rain Light Rain
4:03 PM 39.0 °F 31.8 °F 37.9 °F 96% 29.12 in 1.5 mi South 11.5 mph - 0.00 in   Overcast
4:09 PM 39.0 °F 32.8 °F 39.0 °F 100% 29.12 in 0.8 mi South 9.2 mph - 0.00 in   Mist
4:21 PM 39.0 °F 33.4 °F 37.9 °F 96% 29.12 in 0.5 mi SSW 8.1 mph - 0.00 in Fog Fog
4:43 PM 39.0 °F 32.8 °F 37.9 °F 96% 29.10 in 0.5 mi South 9.2 mph - 0.01 in Fog , Rain Light Rain
4:53 PM 39.0 °F 33.4 °F 37.9 °F 96% 29.11 in 0.5 mi SSE 8.1 mph - 0.01 in Fog , Rain Light Rain
5:04 PM 39.0 °F 34.8 °F 37.9 °F 96% 29.09 in 0.5 mi South 5.8 mph - 0.00 in Fog , Rain Light Rain
5:13 PM 37.9 °F 32.7 °F 37.9 °F 100% 29.09 in 0.2 mi SSE 6.9 mph - 0.00 in Fog , Rain Light Rain
5:53 PM 37.9 °F 30.0 °F 37.0 °F 97% 29.15 in 0.5 mi West 12.7 mph 18.4 mph 0.05 in Fog , Rain Rain
6:02 PM 37.0 °F 26.4 °F 37.0 °F 100% 29.10 in 1.5 mi WNW 20.7 mph 31.1 mph 0.01 in Rain Rain
6:04 PM 36.0 °F 23.0 °F 36.0 °F 100% 29.11 in 2.5 mi West 29.9 mph 34.5 mph 0.01 in Rain Rain
6:11 PM 34.0 °F 20.5 °F 32.0 °F 92% 29.12 in 8.0 mi West 28.8 mph 36.8 mph 0.02 in Rain Light Rain
6:21 PM 32.0 °F 19.8 °F 30.9 °F 96% 29.11 in 10.0 mi West 20.7 mph 31.1 mph 0.02 in Rain Light Rain
6:28 PM 32.0 °F 20.1 °F 30.0 °F 92% 29.11 in 10.0 mi West 19.6 mph 31.1 mph 0.02 in   Overcast
6:53 PM 30.9 °F 17.8 °F 28.9 °F 92% 29.13 in 7.0 mi WNW 23.0 mph 31.1 mph 0.02 in Snow Light Snow
7:08 PM 30.0 °F 17.5 °F 28.0 °F 92% 29.10 in 4.0 mi WNW 19.6 mph - 0.01 in Snow Light Snow
7:53 PM 30.0 °F 18.7 °F 27.0 °F 88% 29.12 in 10.0 mi West 16.1 mph - 0.01 in   Overcast
8:05 PM 30.0 °F 19.5 °F 26.1 °F 85% 29.10 in 10.0 mi West 13.8 mph 27.6 mph N/A   Overcast
8:34 PM 28.9 °F 15.4 °F 24.1 °F 82% 29.10 in 10.0 mi West 21.9 mph 28.8 mph N/A   Overcast
8:53 PM 28.9 °F 16.5 °F 24.1 °F 82% 29.13 in 10.0 mi WSW 18.4 mph 24.2 mph N/A   Overcast
9:12 PM 28.0 °F 16.5 °F 23.0 °F 81% 29.10 in 10.0 mi West 15.0 mph 24.2 mph N/A   Overcast
9:53 PM 26.1 °F 12.7 °F 19.9 °F 78% 29.13 in 10.0 mi WSW 18.4 mph 21.9 mph N/A   Overcast
10:53 PM 24.1 °F 11.5 °F 18.0 °F 77% 29.12 in 10.0 mi West 15.0 mph 27.6 mph N/A   Overcast
11:53 PM 21.0 °F 6.2 °F 14.0 °F 74% 29.13 in 10.0 mi West 18.4 mph 31.1 mph N/A   Overcast